Regional Weather Roundup
Issued by NWS

Home | Current Version | Previous Version | Graphics & Text | Print | Product List | Glossary On
Versions: 1 2 3 4 5 6 7 8 9 10 11 12 13 14 15 16 17 18 19 20 21 22 23 24 25 26 27 28 29 30 31 32 33 34 35 36 37 38 39 40 41 42 43 44 45 46 47 48 49 50
000
ASUS43 KOAX 290610
RWRNE

WEATHER ROUNDUP FOR NEBRASKA
NATIONAL WEATHER SERVICE OMAHA NE
100 AM CDT MON AUG 29 2016

NOTES: SATELLITE DATA IS BEING USED TO AUGMENT CLOUD COVER ABOVE
       12000 FEET.
       "FAIR" INDICATES FEW OR NO CLOUDS BELOW 12,000 FEET WITH NO
       SIGNIFICANT WEATHER AND/OR OBSTRUCTIONS TO VISIBILITY.

  * THESE STATIONS DO NOT REPORT WEATHER SUCH AS RAIN...SNOW OR FOG.

NEZ001>004-019>022-054>056-290700-
NEBRASKA PANHANDLE

CITY           SKY/WX    TMP DP  RH WIND       PRES   REMARKS
SCOTTSBLUFF    CLOUDY    62  55  77 CALM      30.15S
6HR MIN TEMP:  62; 6HR MAX TEMP:  84;

ALLIANCE       PTCLDY    60  56  86 SE10      30.15S
6HR MIN TEMP:  58; 6HR MAX TEMP:  83;

CHADRON        PTCLDY    67  52  58 CALM      30.10R
6HR MIN TEMP:  63; 6HR MAX TEMP:  91;

KIMBALL        CLOUDY    64  50  59 W5        30.21S
SIDNEY         CLEAR     61  50  67 S5        30.19S
6HR MIN TEMP:  60; 6HR MAX TEMP:  80;

$$

NEZ057>060-069>072-079>082-290700-
SOUTHWEST NEBRASKA

CITY           SKY/WX    TMP DP  RH WIND       PRES   REMARKS
NORTH PLATTE   CLOUDY    62  58  86 SE7       30.13F
6HR MIN TEMP:  61; 6HR MAX TEMP:  84;

IMPERIAL       MOCLDY    64  60  87 SE9       30.15F
6HR MIN TEMP:  64; 6HR MAX TEMP:  82;

LEXINGTON      CLOUDY    66  63  90 E6        30.15R
MCCOOK         PTCLDY    69  62  78 S6        30.13F
6HR MIN TEMP:  68; 6HR MAX TEMP:  82;

OGALLALA       CLOUDY    68  59  73 E5        30.14F
$$

NEZ005>010-023>029-035>040-094-290700-
NORTH CENTRAL NEBRASKA

CITY           SKY/WX    TMP DP  RH WIND       PRES   REMARKS
VALENTINE      CLEAR     72  59  63 S15       30.10S
6HR MIN TEMP:  71; 6HR MAX TEMP:  89;

AINSWORTH      CLEAR     68  62  81 S7        30.11F
BROKEN BOW     CLEAR     60  59  96 CALM      30.15R
6HR MIN TEMP:  60; 6HR MAX TEMP:  80;

O`NEILL        CLEAR     73  69  88 S10       30.12S
ORD            PTCLDY    72  66  81 SE9       30.13R
6HR MIN TEMP:  70; 6HR MAX TEMP:  84;

THEDFORD       CLEAR     66  60  81 S7        30.14F
$$

NEZ041-046>049-061>064-073>077-083>087-290700-
SOUTH CENTRAL NEBRASKA

CITY           SKY/WX    TMP DP  RH WIND       PRES   REMARKS
GRAND ISLAND   LGT RAIN  68  64  87 S10       30.14F
6HR MIN TEMP:  68; 6HR MAX TEMP:  86; 6HR PCP:  0.01;

AURORA         CLOUDY    70  68  93 SW9       30.15F
HASTINGS       LGT RAIN  67  62  84 S9        30.17F
6HR MIN TEMP:  66; 6HR MAX TEMP:  86; 6HR PCP:  0.18;

HEBRON         TSTM      68  65  91 W3        30.16R
HOLDREGE       CLOUDY    70  67  90 SE15      30.16R
KEARNEY *      MOCLDY    70  63  78 S16       30.15S
YORK           CLOUDY    68  64  88 SW7       30.15F
$$

NEZ011>018-030>034-042>045-290700-
NORTHEAST NEBRASKA

CITY           SKY/WX    TMP DP  RH WIND       PRES   REMARKS
NORFOLK        FAIR      70  66  87 S8        30.13R
6HR MIN TEMP:  67; 6HR MAX TEMP:  84;

ALBION         FAIR      70  66  86 S8        30.15S
BLAIR          CLOUDY    69  66  92 SE5       30.15S
FREMONT        FAIR      69  67  92 CALM      30.15S
TEKAMAH        MOCLDY    66  64  93 SW5       30.14R
6HR MIN TEMP:  65; 6HR MAX TEMP:  77;

WAYNE          FAIR      68  67  94 SE10      30.15R
$$

NEZ050>053-065>068-078-088>093-290700-
SOUTHEAST NEBRASKA

CITY           SKY/WX    TMP DP  RH WIND       PRES   REMARKS
LINCOLN        CLOUDY    72  67  84 S5        30.14S
6HR MIN TEMP:  71; 6HR MAX TEMP:  80;

OMAHA EPPLEY   CLOUDY    72  65  78 E3        30.14S
6HR MIN TEMP:  71; 6HR MAX TEMP:  78;

BEATRICE       LGT RAIN  70  69  96 SE3       30.13F
FALLS CITY     CLOUDY    69  68  96 CALM      30.11F
6HR MIN TEMP:  69; 6HR MAX TEMP:  76;

NEBRASKA CITY  LGT RAIN  69  69 100 CALM      30.14R
PLATTSMOUTH    CLOUDY    71  67  88 SE5       30.14S
$$

NEZ044-045-051>053-067-290700-
OMAHA AREA

CITY           SKY/WX    TMP DP  RH WIND       PRES   REMARKS
OMAHA EPPLEY   CLOUDY    72  65  78 E3        30.14S
6HR MIN TEMP:  71; 6HR MAX TEMP:  78;

BLAIR          CLOUDY    69  66  92 SE5       30.15S
FREMONT        FAIR      69  67  92 CALM      30.15S
MILLARD        CLOUDY    72  67  85 CALM      30.14S
OFFUTT AFB     CLOUDY    69  68  98 SE2       30.13S
PLATTSMOUTH    CLOUDY    71  67  88 SE5       30.14S
WAHOO          FAIR      67  65  91 S3        30.15S
$$



USA.gov is the U.S. government's official web portal to all federal, state and local government web resources and services.